Regional & State Weather Roundups


497 
ASUS41 KLWX 230511
RWRLWX
REGIONAL WEATHER ROUNDUP
NATIONAL WEATHER SERVICE BALTIMORE MD/WASHINGTON DC
100 AM EDT MON OCT 23 2017
Note: "FAIR" indicates few or no clouds below 12,000 feet
with no significant weather and/or obstructions to visibility.
 TC=TEMPERATURE CELSIUS
 * =Non NWS site. Station does not report precipitation (e.g. rain,
    snow, etc.), thunder, or fog.
DCZ001-MDZ009-015-VAZ040>042-051-053>054-230600-
WASHINGTON METRO
  
CITY           SKY/WX    TMP DP  RH WIND       PRES   REMARKS
WASHINGTON NAT CLOUDY    63  60  90 SE5       30.30F                  
DULLES         MOCLDY    59  59 100 CALM      30.29F                  
ANDREWS AFB    PTCLDY    58  57  95 CALM      30.29S                  
FT BELVOIR     MOCLDY    53  51  93 CALM      30.29F                  
QUANTICO       MOCLDY    64  62  93 SE5       30.30F                  
COLLEGE PARK*  PTCLDY    53  51  92 CALM      30.30S                  
LEESBURG*      MOCLDY    55  55 100 CALM      30.30F                  
MANASSAS*      PTCLDY    54  53  97 NW3       30.29F                  
GAITHERSBURG*  PTCLDY    57  55  93 CALM      30.30F                  
$$
MDZ006>007-011-014-230600-
BALTIMORE METRO
  
CITY           SKY/WX    TMP DP  RH WIND       PRES   REMARKS
BWI AIRPORT    MOCLDY    54  53  97 CALM      30.30F                  
MD SCIENCE CTR   N/A     64  59  83 MISG      30.31S                  
MARTIN STATE   PTCLDY    61  61 100 CALM      30.32S                  
ANNAPOLIS      MOCLDY    65  65 100 SE7       30.29F                  
FORT MEADE*    PTCLDY    50  48  93 CALM      30.33S                  
$$
MDZ012-015-019>023-230600-
MARYLAND EASTERN SHORE
  
CITY           SKY/WX    TMP DP  RH WIND       PRES   REMARKS
OCEAN CITY     PTCLDY    67  66  97 CALM      30.32F                  
SALISBURY      FOG       61  61 100 E3        30.30F VSB 3/4          
CAMBRIDGE*     FOG       59  59 100 CALM      30.30F VSB 1/4          
EASTON*        FOG       60  58  94 CALM      30.34F VSB 1/4          
$$
MDZ017>025-230600-
SOUTHERN MARYLAND
  
CITY           SKY/WX    TMP DP  RH WIND       PRES   REMARKS
PATUXENT RIVER CLOUDY    67  65  93 SE7       30.29F                  
ST INIGOES     MOCLDY    60  59  96 CALM      30.29F                  
LEONARDTOWN*   NOT AVBL                                               
$$
MDZ003>005-230600-
NORTH CENTRAL MARYLAND
  
CITY           SKY/WX    TMP DP  RH WIND       PRES   REMARKS
FREDERICK*     PTCLDY    52  52 100 CALM      30.32F                  
HAGERSTOWN APT CLOUDY    61  52  72 S6        30.27F                  
WESTMINSTER*   MOCLDY    59  55  88 SE7       30.31R                  
$$
MDZ501>502-230600-
WESTERN MARYLAND
  
CITY           SKY/WX    TMP DP  RH WIND       PRES   REMARKS
OAKLAND*       CLOUDY    54  48  82 SE15      30.22F                  
CUMBERLAND*    CLOUDY    61  55  82 SW6       30.28F                  
$$
VAZ025>031-230600-
SHENANDOAH VALLEY
  
CITY           SKY/WX    TMP DP  RH WIND       PRES   REMARKS
WINCHESTER*    CLOUDY    59  54  82 SE7       30.27F                  
FRONT ROYAL*   CLOUDY    63  54  72 S6        30.26F                  
LURAY*         CLOUDY    55  54  94 CALM      30.27F                  
NEW MARKET*    PTCLDY    53  51  90 SW3       30.25F                  
STAUNTON*      CLOUDY    59  53  80 S6        30.29F                  
WAYNESBORO*    CLOUDY    56  54  94 S7        30.28F                  
$$
WVZ021-048>050-054>055-230600-
EASTERN WEST VIRGINIA PANHANDLE
  
CITY           SKY/WX    TMP DP  RH WIND       PRES   REMARKS
MARTINSBURG    PTCLDY    54  51  90 CALM      30.26F                  
PETERSBURG*    CLOUDY    49  47  94 CALM      30.24F                  
$$
VAZ036>039-050-230600-
CENTRAL FOOTHILLS
  
CITY           SKY/WX    TMP DP  RH WIND       PRES   REMARKS
CHARLOTTESVILL CLOUDY    60  56  86 CALM      30.28F                  
CULPEPER*      PTCLDY    54  52  94 CALM      30.30S                  
ORANGE*        CLOUDY    52  52 100 CALM      30.28F                  
GORDONSVILLE*  CLEAR     52  52 100 CALM      30.28F                  
WARRENTON*     CLOUDY    60  55  84 CALM      30.28F                  
$$
VAZ055>057-230600-
NORTH AND CENTRAL PIEDMONT
  
CITY           SKY/WX    TMP DP  RH WIND       PRES   REMARKS
FREDERICKSBRG* CLOUDY    56  56 100 CALM      30.28S                  
STAFFORD*      PTCLDY    53  53 100 CALM      30.33F                  
$$
NCZ024-NYZ072-PAZ021-071-VAZ022-071-230600-
OTHER REGIONAL OBSERVATIONS
  
CITY           SKY/WX    TMP DP  RH WIND       PRES   REMARKS
NEW YORK CITY  PTCLDY    62  58  86 VRB3      30.39F                  
PHILADELPHIA   CLOUDY    58  55  90 E3        30.34F                  
PITTSBURGH     MOCLDY    62  51  67 SE7       30.16S                  
ROANOKE        CLOUDY    57  53  86 CALM      30.28F                  
RICHMOND       PTCLDY    58  57  97 SE3       30.28F                  
RALEIGH        CLOUDY    64  62  93 SE6       30.26F                  
$$
ANZ530>537-230600-
MARINE OBSERVATIONS
  
STATION/POSITION TIME  TEMP    WIND        PRES
                       AIR SEA DIR/SP/G
                 (UTC) (F)     (DEG/KT/KT) (MB)
THOMAS PT LIGHT  0500   65 68  150/  7/  8   N/A
BALT KEY BRIDGE  0448   64     140/  6/  7 1026.1F
COVE POINT       0448   66     160/  7/  9 1026.7F
LEWISETTA        0448   65 67  200/  3/  4 1025.7F
SOLOMONS ISLAND  0436   66 69  190/  2/  3 1025.5F
PINEY POINT      0436          160/  9/ 10   N/A
$$